Location: Krasnoyarskiy Pitomnik
(51.1333°N, 71.6167°E)
Time: 23:31:27
(UTC+00:00)

NOSS 2-2 (C) - Pass Details

Date: 05 June 2022
Orbit: 439 x 1763 km, 63.3° (Epoch: 02 June)

Event Time Altitude Azimuth Distance (km) Brightness Sun altitude
Rises 18:31:10 0° 306° (NW) 3,083 7.9 -15.7°
Reaches altitude 10° 18:33:36 10° 292° (WNW) 2,337 6.9 -15.8°
Maximum altitude 18:37:55 25° 239° (WSW) 1,814 5.7 -15.9°
Enters shadow 18:41:01 18° 203° (SSW) 2,352 6.0 -15.9°
